星链-34887 (STARLINK-34887)

导读

STARLINK-34887是美国于2025年8月4日发射的星链系列卫星,归属SpaceX星链互联网星座项目。星链计划旨在搭建全球覆盖的低轨卫星互联网,为偏远地区、海上及空中场景提供宽带通信服务,该卫星入轨后将进一步扩展星链星座的全球服务覆盖范围,增强星座整体通信能力。

Basic Information
目录编号:
65103
目录名称:
STARLINK-34887
国际标识:
2025-167AB
轨道中心:
EARTH
卫星名称:
星链-34887
卫星全名:
星链-34887 (STARLINK-34887)
卫星状态:
在轨 (已飞行403 天)
发射日期:
2025-08-04 UTC
国别 :
美国 (US)
星等 :
--
This satellite is enrolled in the Space Conjunction Data Service (SCDS) and the current flight risk assessment level is: No High Risk
Orbit Information
数据来源 国际轨道数据
星历时间: 2026-09-11T08:10:24+0800
15小时前
查看轨道信息
半长轴: 6840.848km
偏心率: 0.0001241
轨道倾角: 53.157°
近地点辐角 89.407°
升交点赤经 242.269°
平近点角 270.707°
近地点: 461.862km
远地点: 463.56km
周期: 93.848分钟
每日圈数: 15.343977
Detailed Information
固有亮度:
5
最大亮度:
2.5
卫星平台:
Starlink V1.0
覆盖范围:
全球
运营商:
太空探索技术公司
运营商所在国:
美国
制造商(研发单位):
太空探索技术公司
制造商所在国:
美国
使用方式:
暂无
Satellite Introduction
Starlink 计划是 SpaceX 推出的全球卫星互联网项目,通过发射低轨道卫星,为全球尤其是偏远地区提供高速、低延迟的互联网服务。自 2019 年起,Starlink 已部署数千颗卫星,旨在缩小全球数字鸿沟,推动互联网普及。该项目还为军事、航空等行业提供通信支持,带来广泛经济效益。
2D Orbit Map
3D Orbit Map
Orbit Altitude Analysis Chart
Orbit Inclination Analysis Chart
Orbit Comprehensive Analysis Chart
View Comprehensive Chart
Conjunction Data List
Event ID Objects TCA Miss Dist (km) Collision Risk Probability Collision Risk Index (CRI) Action
CDM_260913-054105-177406-510321
2026-09-13T
05:41:12+0000
0.566 km
远距离
4.636949E-5 中风险 0.68
CDM_260911-222106-510306-826421
2026-09-11T
22:21:11+0000
0.828 km
远距离
2.985614E-5 中风险 0.65
CDM_260913-032005-177406-510321
2026-09-13T
03:20:31+0000
1.133 km
极远距离
4.739983E-6 低风险 0.49
CDM_260912-100406-510306-826421
2026-09-12T
10:04:36+0000
1.470 km
极远距离
4.251861E-6 低风险 0.48
CDM_260911-192106-324006-510322
2026-09-11T
19:21:02+0000
1.699 km
极远距离
3.750923E-6 低风险 0.46
CDM_260911-194104-431206-510321
OBJECT C (44312)
2026-09-11T
19:41:25+0000
1.365 km
极远距离
1.845681E-6 低风险 0.4
CDM_260911-204706-510306-826421
2026-09-11T
20:47:24+0000
2.167 km
极远距离
1.472688E-6 低风险 0.38
CDM_260911-202804-431206-510321
OBJECT C (44312)
2026-09-11T
20:28:25+0000
1.617 km
极远距离
1.130428E-6 低风险 0.36
CDM_260912-083006-510306-826421
2026-09-12T
08:30:49+0000
2.645 km
极远距离
1.021535E-6 低风险 0.35
CDM_260913-014605-177406-510321
2026-09-13T
01:46:43+0000
2.109 km
极远距离
8.112309E-7 极低风险 0.33
Miss Distance Evolution Trend with All Objects
Collision Probability Evolution Trend with All Objects